User: anonymous   Login
Location: Brno
(49.2000°N, 16.6330°E)
Time: 14:14:41
(UTC+02:00)
Language:

Iridium 2 - Orbit

View from above orbital plane
View from above orbital plane
View from above satellite
View from above satellite

Ground track
Ground track

The orbit data is extracted from the following two-line orbital elements,

1 25527U 98066A   17116.78496667 +.00003020 +00000-0 +15359-3 0  9990
2 25527 085.5317 062.5874 0006733 284.0046 076.0445 15.16417487010570
Epoch (UTC): 26 April 2017 18:50:21
Eccentricity: 0.0006733
inclination: 85.5317°
perigee height: 512 km
apogee height: 521 km
right ascension of ascending node: 62.5874°
argument of perigee: 284.0046°
revolutions per day: 15.16417487
mean anomaly at epoch: 76.0445°
orbit number at epoch: 1057

The dashed part of the orbit path shows where the satellite is in the earth's shadow,  

DLR